Hourly Weather Klasztorek

Today, 25 July, Sunday

Time Temperature Precipitation Wind Pressure Humidity
00:00 +19°C° 0 mm 2 mps 754 mmHg 72%
01:00 +19°C° 0 mm 2 mps 754 mmHg 72%
02:00 +19°C° 0 mm 2 mps 753 mmHg 72%
03:00 +19°C° 0 mm 2 mps 753 mmHg 71%
04:00 +19°C° 0 mm 2 mps 753 mmHg 71%
05:00 +20°C° 0 mm 3 mps 753 mmHg 70%
06:00 +20°C° 0 mm 3 mps 753 mmHg 69%
07:00 +21°C° 0 mm 3 mps 753 mmHg 66%
08:00 +22°C° 0 mm 4 mps 753 mmHg 63%
09:00 +25°C° 0 mm 4 mps 753 mmHg 60%
10:00 +26°C° 0 mm 5 mps 753 mmHg 56%
11:00 +28°C° 0 mm 5 mps 753 mmHg 51%
12:00 +29°C° 0 mm 5 mps 753 mmHg 45%
13:00 +32°C° 0 mm 5 mps 753 mmHg 40%
14:00 +30°C° 0 mm 4 mps 752 mmHg 42%
15:00 +30°C° 0 mm 4 mps 752 mmHg 43%
16:00 +29°C° 0 mm 3 mps 752 mmHg 45%
17:00 +28°C° 0 mm 3 mps 752 mmHg 51%
18:00 +26°C° 0 mm 3 mps 752 mmHg 57%
19:00 +25°C° 0 mm 3 mps 752 mmHg 64%
20:00 +24°C° 0 mm 3 mps 752 mmHg 65%
21:00 +22°C° 0 mm 3 mps 752 mmHg 66%
22:00 +22°C° 0 mm 3 mps 752 mmHg 67%
23:00 +21°C° 0 mm 3 mps 753 mmHg 68%

Tomorrow, 26 July, Monday

Time Temperature Precipitation Wind Pressure Humidity
00:00 +20°C° 0 mm 3 mps 753 mmHg 70%
01:00 +20°C° 0 mm 3 mps 753 mmHg 71%
02:00 +20°C° 0 mm 3 mps 753 mmHg 72%
03:00 +20°C° 0 mm 4 mps 753 mmHg 72%
04:00 +20°C° 0 mm 4 mps 752 mmHg 72%
05:00 +20°C° 0 mm 4 mps 752 mmHg 71%
06:00 +21°C° 0 mm 4 mps 752 mmHg 71%
07:00 +21°C° 0 mm 4 mps 752 mmHg 70%
08:00 +22°C° 0 mm 4 mps 752 mmHg 66%
09:00 +25°C° 0 mm 5 mps 752 mmHg 61%
10:00 +26°C° 0 mm 5 mps 752 mmHg 57%
11:00 +27°C° 0.1 mm 5 mps 752 mmHg 54%
12:00 +28°C° 0.1 mm 5 mps 752 mmHg 51%
13:00 +30°C° 0.1 mm 5 mps 751 mmHg 49%
14:00 +29°C° 0 mm 5 mps 751 mmHg 50%
15:00 +29°C° 0 mm 4 mps 751 mmHg 52%
16:00 +28°C° 0 mm 4 mps 751 mmHg 54%
17:00 +26°C° 0.6 mm 4 mps 751 mmHg 65%
18:00 +25°C° 0.6 mm 4 mps 751 mmHg 76%
19:00 +22°C° 0.6 mm 4 mps 751 mmHg 87%
20:00 +21°C° 0.2 mm 4 mps 751 mmHg 89%
21:00 +21°C° 0.2 mm 4 mps 751 mmHg 92%
22:00 +20°C° 0.2 mm 4 mps 751 mmHg 94%
23:00 +19°C° 0.2 mm 3 mps 751 mmHg 95%

Day after tomorrow, 27 July, Tuesday

Time Temperature Precipitation Wind Pressure Humidity
00:00 +19°C° 0.2 mm 3 mps 751 mmHg 96%
01:00 +19°C° 0.2 mm 2 mps 750 mmHg 97%
02:00 +19°C° 0 mm 2 mps 750 mmHg 97%
03:00 +18°C° 0 mm 2 mps 750 mmHg 97%
04:00 +18°C° 0 mm 2 mps 750 mmHg 97%
05:00 +20°C° 0 mm 1 mps 750 mmHg 94%
06:00 +22°C° 0 mm 1 mps 750 mmHg 90%
07:00 +23°C° 0 mm 1 mps 750 mmHg 87%
08:00 +24°C° 0 mm 2 mps 750 mmHg 79%
09:00 +26°C° 0 mm 2 mps 750 mmHg 71%
10:00 +28°C° 0 mm 3 mps 750 mmHg 63%
11:00 +28°C° 0.2 mm 3 mps 750 mmHg 60%
12:00 +29°C° 0.2 mm 4 mps 751 mmHg 56%
13:00 +29°C° 0.2 mm 5 mps 751 mmHg 53%
14:00 +28°C° 0.2 mm 5 mps 751 mmHg 56%
15:00 +28°C° 0.2 mm 4 mps 751 mmHg 60%
16:00 +27°C° 0.2 mm 4 mps 751 mmHg 63%
17:00 +25°C° 0.9 mm 4 mps 751 mmHg 71%
18:00 +24°C° 0.9 mm 3 mps 751 mmHg 79%
19:00 +21°C° 0.9 mm 2 mps 751 mmHg 87%
20:00 +20°C° 0.1 mm 2 mps 751 mmHg 87%
21:00 +20°C° 0.1 mm 1 mps 752 mmHg 87%
22:00 +20°C° 0.1 mm 1 mps 752 mmHg 87%
23:00 +20°C° 0 mm 1 mps 752 mmHg 87%

28 July, Wednesday

Time Temperature Precipitation Wind Pressure Humidity
00:00 +19°C° 0 mm 1 mps 752 mmHg 87%
01:00 +19°C° 0 mm 1 mps 752 mmHg 86%
02:00 +19°C° 0 mm 1 mps 752 mmHg 87%
03:00 +18°C° 0 mm 2 mps 751 mmHg 89%
04:00 +18°C° 0 mm 2 mps 751 mmHg 90%
05:00 +20°C° 0 mm 2 mps 751 mmHg 84%
06:00 +21°C° 0 mm 2 mps 751 mmHg 78%
07:00 +24°C° 0 mm 3 mps 752 mmHg 73%
08:00 +25°C° 0 mm 3 mps 751 mmHg 64%
09:00 +27°C° 0 mm 3 mps 751 mmHg 55%
10:00 +29°C° 0 mm 4 mps 751 mmHg 46%
11:00 +29°C° 0 mm 4 mps 751 mmHg 45%
12:00 +29°C° 0 mm 4 mps 751 mmHg 44%
13:00 +29°C° 0 mm 4 mps 751 mmHg 43%
14:00 +29°C° 0 mm 4 mps 751 mmHg 44%
15:00 +29°C° 0 mm 4 mps 751 mmHg 45%
16:00 +28°C° 0 mm 4 mps 751 mmHg 46%
17:00 +27°C° 0 mm 4 mps 751 mmHg 50%
18:00 +26°C° 0 mm 4 mps 751 mmHg 53%
19:00 +25°C° 0 mm 4 mps 751 mmHg 56%
20:00 +24°C° 0 mm 3 mps 751 mmHg 61%
21:00 +22°C° 0 mm 3 mps 752 mmHg 65%
22:00 +21°C° 0 mm 3 mps 752 mmHg 70%
23:00 +20°C° 0 mm 3 mps 752 mmHg 74%

29 July, Thursday

Time Temperature Precipitation Wind Pressure Humidity
00:00 +19°C° 0 mm 3 mps 752 mmHg 79%
01:00 +18°C° 0 mm 2 mps 752 mmHg 83%
02:00 +17°C° 0 mm 2 mps 752 mmHg 85%
03:00 +17°C° 0 mm 2 mps 753 mmHg 88%
04:00 +16°C° 0 mm 2 mps 753 mmHg 90%
05:00 +17°C° 0 mm 2 mps 753 mmHg 83%
06:00 +19°C° 0 mm 2 mps 753 mmHg 76%
07:00 +21°C° 0 mm 2 mps 753 mmHg 69%
08:00 +23°C° 0 mm 2 mps 753 mmHg 63%
09:00 +25°C° 0 mm 3 mps 753 mmHg 56%
10:00 +26°C° 0 mm 3 mps 753 mmHg 50%
11:00 +27°C° 0 mm 3 mps 753 mmHg 47%
12:00 +28°C° 0 mm 3 mps 753 mmHg 43%
13:00 +29°C° 0 mm 3 mps 752 mmHg 39%
14:00 +28°C° 0 mm 3 mps 752 mmHg 43%
15:00 +28°C° 0 mm 2 mps 752 mmHg 46%
16:00 +27°C° 0 mm 2 mps 752 mmHg 49%
17:00 +26°C° 0 mm 2 mps 752 mmHg 52%
18:00 +25°C° 0 mm 1 mps 752 mmHg 55%
19:00 +24°C° 0 mm 1 mps 751 mmHg 57%
20:00 +24°C° 0 mm 1 mps 751 mmHg 58%
21:00 +23°C° 0 mm 2 mps 751 mmHg 59%
22:00 +23°C° 0 mm 2 mps 751 mmHg 59%
23:00 +23°C° 0 mm 2 mps 751 mmHg 59%

30 July, Friday

Time Temperature Precipitation Wind Pressure Humidity
00:00 +23°C° 0 mm 2 mps 751 mmHg 59%
01:00 +23°C° 0 mm 2 mps 750 mmHg 59%
02:00 +21°C° 0 mm 2 mps 750 mmHg 63%
03:00 +20°C° 0 mm 2 mps 750 mmHg 67%
04:00 +19°C° 0 mm 2 mps 750 mmHg 71%
05:00 +21°C° 0 mm 3 mps 750 mmHg 67%
06:00 +22°C° 0 mm 3 mps 750 mmHg 64%
07:00 +23°C° 0 mm 4 mps 750 mmHg 61%
08:00 +25°C° 0 mm 4 mps 749 mmHg 58%
09:00 +26°C° 0 mm 4 mps 749 mmHg 56%
10:00 +27°C° 0 mm 5 mps 749 mmHg 53%
11:00 +28°C° 0 mm 5 mps 748 mmHg 51%
12:00 +29°C° 0 mm 5 mps 748 mmHg 49%
13:00 +30°C° 0 mm 6 mps 747 mmHg 47%
14:00 +28°C° 0.2 mm 6 mps 747 mmHg 55%
15:00 +27°C° 0.2 mm 5 mps 747 mmHg 64%
16:00 +25°C° 0.2 mm 5 mps 747 mmHg 73%
17:00 +23°C° 1 mm 4 mps 747 mmHg 77%
18:00 +22°C° 1 mm 3 mps 747 mmHg 82%
19:00 +21°C° 1 mm 2 mps 747 mmHg 86%
20:00 +20°C° 0.1 mm 2 mps 748 mmHg 87%
21:00 +20°C° 0.1 mm 2 mps 748 mmHg 88%
22:00 +20°C° 0.1 mm 1 mps 748 mmHg 90%
23:00 +19°C° 0.1 mm 1 mps 748 mmHg 90%
Show more